Regional Weather Roundup
Issued by NWS

Home | Current Version | Previous Version | Text Only | Print | Product List | Glossary On
Versions: 1 2 3 4 5 6 7 8 9 10 11 12 13 14 15 16 17 18 19 20 21 22 23 24 25 26 27 28 29 30 31 32 33 34 35 36 37 38 39 40 41 42 43 44 45 46 47 48 49 50
000
ASUS43 KTOP 220959
RWRKS

WEATHER ROUNDUP FOR KANSAS
NATIONAL WEATHER SERVICE GOODLAND KS
400 AM CST SUN JAN 22 2017

NOTE:  "FAIR" INDICATES FEW OR NO CLOUDS BELOW 12,000 FEET WITH NO
SIGNIFICANT WEATHER AND/OR OBSTRUCTIONS TO VISIBILITY.

KSZ001>006-013>018-027>032-041>047-221100-
NORTHWEST KANSAS

CITY           SKY/WX    TMP DP  RH WIND       PRES   REMARKS
GOODLAND       MOCLDY    30  26  85 W10       29.70R WCI  21
HAYS           CLEAR     36  33  89 N13       29.64R WCI  27
HILL CITY      CLEAR     33  30  88 N12       29.68R WCI  24
RUSSELL        PTCLDY    34  33  96 N12       29.61R WCI  25
$$

KSZ061>065-074>080-084>089-221100-
SOUTHWEST KANSAS

CITY           SKY/WX    TMP DP  RH WIND       PRES   REMARKS
DODGE CITY     CLOUDY    39  36  89 N14       29.63R WCI  31
ELKHART          N/A     34  25  70 NW12        N/A  WCI  25
GARDEN CITY    CLEAR     33  30  88 N15       29.66R WCI  23
GREAT BEND     MOCLDY    38  36  92 N13       29.61R WCI  30
LIBERAL          N/A     37  32  81 N13       29.66R WCI  29
$$

KSZ066>073-081>083-090>101-221100-
SOUTHEAST KANSAS

CITY           SKY/WX    TMP DP  RH WIND       PRES   REMARKS
CHANUTE        LGT RAIN  49  45  86 NE12      29.46S
COFFEYVILLE    LGT RAIN  49  47  93 NE14      29.43R
HUTCHINSON     CLOUDY    45  40  82 N13       29.56R
MEDICINE LODGE   N/A     43  41  93 N13       29.55R
NEWTON         CLOUDY    43  42  97 N16       29.53R
PARSONS        RAIN      49  46  90 NE10G23   29.45R FOG
WICHITA INTL   LGT RAIN  46  44  93 N13       29.51R
WICHITA JABRA  CLOUDY    45  44  97 N13       29.51R
WINFIELD       CLOUDY    49  45  86 N16       29.47R
$$

KSZ007>012-019>026-033>040-048>060-102>105-221100-
NORTHEAST KANSAS

CITY           SKY/WX    TMP DP  RH WIND       PRES   REMARKS
CONCORDIA      CLEAR     34  34 100 N8        29.62R
EMPORIA        CLOUDY    46  43  89 N8        29.52R
LAWRENCE       CLOUDY    47  43  86 VRB3      29.56R
MANHATTAN      CLOUDY    42  38  85 CALM      29.58R
OLATHE IND     CLOUDY    46  45  96 NE8       29.53S
OLATHE EXE     LGT RAIN  45  45 100 NE8       29.53S FOG
SALINA           N/A    N/A N/A N/A MISG        N/A
TOPEKA BILLARD CLOUDY    46  42  86 N6        29.56R
TOPEKA FORBES  CLOUDY    47  43  86 N7        29.55R
$$




USA.gov is the U.S. government's official web portal to all federal, state and local government web resources and services.